Location: Amsterdam
(30.7274°N, 84.4357°W)
Time: 00:57:28
(UTC+00:00)

Courier 1B Rocket - Pass Details

Date: 10 February 2026
Orbit: 920 x 1201 km, 28.2° (Epoch: 10 March)

Event Time Altitude Azimuth Distance (km) Brightness Sun altitude
Rises 04:27:40 0° 252° (WSW) 3,727 - -64.7°
Reaches altitude 10° 04:30:17 10° 249° (WSW) 2,817 - -65.1°
Maximum altitude 04:37:07 65° 169° (S) 1,184 - -66.3°
Drops below altitude 10° 04:44:29 10° 90° (E) 3,025 - -67.5°
Sets 04:47:23 0° 87° (E) 4,020 - -67.9°
